Wind_Speed
40 39 40 40 38 37 36 32 31 29 26 24 26 26 22 21 22 20 19 18 10 8 10 19 16 16 15 12 10 7 9 8 11 16 17 19 20 21 21 19 19 20 19
44 40 42 41 41 42 40 38 36 34 33 33 33 30 28 26 27 22 23 22 14 14 17 15 18 17 11 12 7 6 11 13 14 18 17 15 16 16 20 23 20 19 21
44 43 43 43 43 44 44 42 40 39 38 37 36 37 35 33 31 25 20 16 13 15 17 17 17 16 17 15 15 15 15 15 15 17 21 21 21 21 25 22 19 21 25
44 44 45 46 46 46 45 44 41 42 41 41 42 42 39 37 34 29 25 21 16 18 18 18 18 19 19 20 18 15 15 16 17 18 19 23 21 25 25 20 21 27 26
45 45 46 46 46 45 44 44 41 40 43 41 42 42 40 39 36 35 30 24 18 20 20 19 20 21 23 22 21 18 17 18 20 22 22 26 26 24 27 32 32 29 26
46 47 43 42 44 43 42 41 39 39 41 41 41 40 44 43 37 37 33 26 21 22 21 18 17 17 20 21 21 21 20 22 25 27 27 30 29 30 30 28 27 28 31
46 46 46 43 44 44 41 39 39 39 40 42 41 38 38 39 39 40 35 26 21 23 20 17 16 17 20 26 24 16 22 25 27 26 25 25 26 27 23 25 28 31 35
48 44 45 45 44 43 42 39 38 38 40 40 40 38 35 38 39 41 36 23 21 21 20 25 22 22 22 22 19 27 27 24 23 24 23 25 24 24 24 29 31 30 27
43 48 41 42 41 43 41 38 37 37 37 39 38 34 33 35 35 39 35 23 23 25 25 27 19 25 24 22 25 27 29 24 23 21 23 25 26 25 27 27 24 27 30
47 44 45 36 34 34 36 35 33 34 34 34 33 31 30 30 28 32 26 28 25 28 26 24 23 24 23 25 25 27 25 23 21 21 21 23 24 28 21 22 26 34 32
41 36 35 34 34 31 27 28 26 27 27 28 26 25 24 24 22 24 26 24 28 26 26 25 24 22 24 25 24 19 20 20 22 22 25 25 19 21 22 20 15 16 20
31 30 29 31 30 29 30 28 25 26 24 22 20 18 17 16 15 17 19 22 21 20 22 19 16 21 23 23 22 20 21 21 22 23 20 14 17 19 16 21 23 27 27
29 26 26 25 25 24 26 23 23 23 23 21 18 16 14 14 18 18 18 16 18 18 21 21 20 20 20 19 18 17 18 18 18 16 13 16 15 21 22 22 21 22 24
29 29 27 26 27 23 21 20 21 21 20 17 15 12 14 15 16 13 14 17 17 18 22 21 24 22 16 16 17 12 13 11 11 11 16 16 15 18 20 20 22 23 26
31 29 27 24 24 23 21 20 19 17 16 14 16 14 12 12 14 12 8 12 11 12 14 16 14 10 13 13 13 16 14 11 13 10 12 17 18 18 19 19 21 21 22
28 24 22 21 20 21 20 20 16 13 13 14 15 14 13 12 11 10 10 10 9 7 9 11 14 13 18 14 13 11 9 11 7 11 13 16 17 17 18 18 18 19 21
19 20 20 18 19 18 18 18 16 15 14 14 14 15 12 12 11 7 7 8 9 10 14 15 12 12 12 8 8 8 6 5 9 15 15 12 15 15 16 17 18 19 20
18 14 14 14 12 15 12 12 11 13 14 16 15 13 13 13 12 10 10 11 10 10 11 9 10 9 8 8 9 9 9 10 10 11 13 15 11 13 14 16 17 19 21
24 22 21 13 15 16 16 16 16 12 14 9 12 16 14 13 12 11 10 10 7 7 9 6 5 6 8 9 9 10 11 13 13 13 11 5 10 11 13 15 17 18 20
17 14 17 17 16 16 15 14 12 13 19 14 7 6 10 10 10 10 11 11 9 5 6 6 5 9 12 12 12 11 9 7 7 8 9 10 9 11 12 15 16 19 20
12 15 16 15 13 14 14 11 12 13 15 16 13 6 7 9 9 10 7 3 5 6 7 8 7 8 8 9 9 8 5 5 6 7 7 7 9 10 12 14 14 18 18
12 12 15 12 14 15 11 10 10 8 10 14 17 16 11 8 7 11 13 13 12 10 8 5 8 6 5 7 10 8 7 4 6 7 7 6 7 8 12 10 15 16 17
8 18 11 13 17 17 12 10 9 8 4 13 11 15 17 11 8 10 12 13 12 11 8 7 7 6 6 10 11 6 4 4 7 6 7 5 5 9 11 11 13 14 15
2 13 19 16 15 9 13 13 8 8 8 6 5 7 8 9 10 10 12 15 15 12 11 8 8 7 8 9 9 6 7 11 12 13 8 6 2 8 7 11 13 10 16
3 6 7 5 6 10 6 6 12 10 8 9 13 13 12 8 9 9 13 14 13 12 14 13 11 7 10 11 10 11 13 15 17 17 13 9 2 4 11 7 11 9 13
7 5 4 4 7 9 5 11 7 10 12 11 12 12 12 9 12 13 13 14 13 13 10 12 11 11 11 9 11 12 13 15 13 11 9 6 2 5 10 4 8 10 10
Wind_Direction
220 219 218 220 220 217 212 218 224 215 216 220 232 239 230 216 215 209 198 204 230 254 238 222 224 242 239 233 248 257 250 260 295 277 281 282 290 296 295 301 290 290 291
215 217 218 220 222 224 221 216 222 223 221 221 230 235 236 227 224 214 201 200 238 292 247 233 231 233 242 251 248 263 271 279 276 289 287 292 296 295 292 292 295 281 290
208 214 213 221 224 226 229 226 223 228 230 231 232 236 238 235 230 222 223 231 234 260 234 234 236 228 227 238 246 254 260 271 272 283 288 296 296 291 308 300 295 284 287
208 209 212 221 225 228 230 233 230 231 236 236 237 241 241 239 235 227 229 225 255 238 227 233 233 235 235 245 251 260 269 272 276 274 286 297 295 303 301 294 288 293 297
207 208 215 222 225 227 229 230 233 232 239 239 242 242 243 240 237 228 229 229 253 234 230 231 229 230 240 245 258 264 270 280 279 282 280 286 284 286 284 291 296 296 293
208 212 218 222 223 227 224 225 225 231 232 241 241 243 244 241 241 235 234 231 251 232 234 235 226 234 253 261 258 262 271 279 279 283 285 283 281 284 292 292 287 288 296
209 212 217 221 222 227 226 224 227 228 230 239 244 243 242 238 245 238 234 240 240 235 241 237 223 238 247 253 261 271 285 288 283 282 275 280 289 295 292 292 296 296 296
208 213 213 218 220 224 224 228 227 226 233 239 242 245 247 242 243 239 232 235 233 237 237 228 260 249 244 257 269 278 293 297 287 276 276 289 294 295 293 298 299 299 305
211 210 214 213 219 219 220 223 224 228 232 238 244 248 246 246 245 242 233 234 248 257 242 243 250 250 262 267 276 280 294 281 286 276 280 287 283 286 299 295 293 296 295
208 212 209 205 209 211 215 219 225 233 238 241 244 249 254 251 255 242 241 241 253 258 240 242 251 262 262 269 277 283 279 285 285 281 273 277 283 291 293 295 295 282 290
203 207 198 199 202 203 210 222 226 227 232 238 244 248 252 251 257 243 248 257 248 247 236 249 260 265 271 276 282 271 277 280 279 276 278 289 295 299 302 303 295 289 291
195 195 196 198 197 203 213 221 222 225 228 232 236 240 245 244 228 229 238 257 239 232 246 261 265 267 281 280 275 268 279 284 282 283 287 295 303 301 289 284 285 288 296
180 176 181 189 186 198 210 210 210 218 221 227 229 234 231 214 226 236 250 224 222 238 250 251 256 273 277 277 271 282 294 295 295 289 291 294 277 292 295 303 308 305 303
162 169 174 182 191 195 202 213 213 213 213 211 211 204 210 228 237 228 225 220 227 243 254 261 274 279 278 279 280 284 288 289 312 289 291 293 307 297 303 307 307 308 307
167 177 182 184 190 193 198 197 205 204 205 204 201 200 208 227 223 229 201 217 228 246 265 260 266 279 293 286 276 285 276 286 292 282 280 288 288 303 304 306 308 312 314
177 179 185 184 184 184 183 187 181 182 190 194 196 206 197 193 209 198 223 239 232 237 248 237 255 275 288 271 266 271 274 270 288 263 263 275 301 301 307 312 316 316 317
168 163 163 171 170 165 169 173 169 169 173 183 185 202 216 205 194 231 238 241 259 257 252 247 256 271 274 258 274 285 295 275 272 295 308 302 293 303 310 312 316 317 320
146 138 136 140 149 154 157 155 172 179 185 198 205 206 204 211 223 241 236 249 248 246 251 265 248 265 295 300 279 268 268 269 271 276 277 279 296 306 309 313 317 318 319
159 156 159 143 164 176 166 175 186 170 170 199 205 222 221 214 224 231 238 220 206 255 276 243 233 259 263 272 280 270 266 268 275 289 321 334 306 305 311 315 317 320 320
151 169 150 168 166 166 169 180 177 186 186 209 196 217 213 213 230 234 226 227 222 227 261 246 261 273 267 270 261 255 266 286 297 301 305 298 308 308 312 318 318 319 324
146 179 160 175 178 177 173 181 193 198 212 211 207 207 191 196 211 226 228 210 206 227 253 239 249 272 274 280 291 282 264 281 287 282 289 293 302 314 319 314 319 324 329
186 196 178 183 183 181 181 196 201 197 224 199 202 208 196 190 188 226 224 208 214 224 227 253 249 251 270 248 243 242 264 269 278 270 271 289 305 318 314 321 328 328 334
215 188 198 204 172 177 172 190 187 204 233 148 165 184 192 193 198 230 229 220 208 225 241 236 247 265 274 270 278 269 237 266 249 258 268 283 312 319 321 330 330 324 333
350 160 174 160 156 168 203 215 190 189 163 168 184 191 195 196 218 233 237 245 241 229 224 247 248 235 248 257 274 286 237 237 246 250 269 271 311 315 332 336 331 321 341
178 133 140 122 194 205 227 210 224 209 219 195 200 200 216 250 239 226 243 239 231 252 265 256 233 243 264 275 249 243 249 252 263 274 279 277 246 10 323 296 335 334 344
229 216 222 195 231 213 213 242 235 231 204 218 219 222 229 227 240 225 230 228 250 272 241 224 243 232 228 258 276 275 277 278 272 268 268 257 151 347 300 321 340 339 342
Height
1489 1495 1500 1504 1509 1514 1519 1523 1526 1531 1533 1534 1534 1536 1538 1538 1539 1539 1538 1540 1539 1541 1545 1553 1555 1557 1558 1558 1558 1559 1559 1559 1558 1558 1558 1558 1556 1555 1554 1552 1550 1548 1546
1482 1488 1492 1497 1502 1506 1511 1516 1519 1523 1526 1529 1529 1530 1531 1532 1532 1534 1536 1537 1538 1537 1540 1543 1548 1551 1553 1554 1554 1555 1555 1556 1555 1554 1553 1553 1552 1550 1548 1546 1544 1542 1541
1475 1480 1485 1490 1494 1498 1502 1507 1512 1516 1519 1522 1523 1524 1525 1526 1528 1532 1534 1535 1536 1535 1535 1539 1543 1546 1548 1549 1550 1550 1551 1551 1551 1550 1548 1548 1546 1544 1542 1540 1538 1536 1535
1468 1473 1477 1481 1485 1490 1495 1499 1504 1507 1510 1512 1515 1515 1518 1520 1523 1526 1528 1530 1531 1532 1530 1534 1539 1542 1544 1544 1545 1545 1545 1545 1545 1545 1543 1542 1541 1539 1536 1534 1531 1530 1527
1461 1465 1467 1472 1478 1484 1488 1492 1496 1500 1501 1505 1507 1510 1514 1515 1517 1520 1522 1524 1526 1528 1528 1527 1530 1536 1539 1540 1540 1541 1541 1541 1541 1540 1540 1538 1536 1535 1532 1530 1525 1523 1521
1454 1457 1462 1467 1472 1475 1481 1486 1489 1492 1495 1497 1501 1503 1503 1507 1514 1516 1519 1521 1522 1523 1524 1526 1524 1531 1534 1536 1536 1535 1535 1536 1536 1534 1531 1530 1529 1527 1526 1524 1521 1518 1513
1446 1451 1455 1460 1463 1468 1474 1479 1483 1486 1490 1491 1494 1498 1501 1504 1509 1511 1514 1517 1518 1520 1521 1522 1521 1524 1528 1527 1528 1528 1530 1529 1526 1527 1523 1522 1522 1522 1519 1516 1515 1513 1508
1439 1444 1449 1453 1457 1462 1467 1472 1477 1480 1483 1486 1488 1491 1494 1497 1498 1502 1509 1511 1513 1514 1516 1516 1517 1520 1523 1523 1523 1524 1523 1522 1521 1520 1517 1517 1516 1514 1513 1510 1508 1505 1501
1430 1436 1441 1447 1451 1455 1460 1466 1471 1475 1478 1479 1481 1485 1488 1491 1492 1496 1501 1505 1507 1509 1511 1513 1513 1515 1516 1518 1518 1517 1516 1515 1516 1515 1514 1511 1510 1508 1508 1505 1502 1499 1494
1422 1427 1435 1441 1445 1450 1455 1460 1466 1468 1472 1475 1477 1480 1482 1485 1488 1491 1496 1499 1500 1502 1505 1506 1509 1511 1512 1513 1512 1511 1509 1510 1510 1510 1508 1506 1505 1504 1503 1500 1497 1493 1491
1419 1423 1428 1435 1441 1447 1451 1455 1460 1463 1468 1470 1473 1476 1478 1481 1483 1486 1490 1493 1495 1496 1500 1502 1504 1506 1507 1508 1507 1506 1504 1504 1504 1503 1502 1500 1498 1497 1496 1494 1492 1490 1486
1416 1420 1425 1432 1438 1443 1447 1453 1456 1459 1462 1467 1470 1473 1475 1477 1480 1482 1485 1488 1490 1493 1496 1497 1498 1499 1501 1501 1501 1501 1500 1499 1498 1497 1495 1494 1493 1493 1491 1489 1487 1485 1483
1413 1418 1424 1430 1435 1439 1443 1447 1452 1456 1459 1462 1465 1469 1472 1474 1477 1480 1481 1483 1486 1490 1491 1491 1493 1495 1495 1495 1496 1496 1495 1494 1493 1491 1491 1490 1489 1487 1485 1484 1482 1479 1477
1409 1414 1420 1425 1430 1436 1441 1446 1449 1452 1455 1458 1461 1464 1468 1471 1473 1475 1477 1480 1482 1484 1486 1488 1488 1489 1489 1490 1491 1491 1490 1489 1488 1488 1487 1486 1485 1483 1481 1480 1477 1474 1471
1406 1412 1418 1424 1429 1431 1437 1442 1445 1449 1454 1457 1460 1462 1464 1466 1468 1472 1474 1476 1478 1480 1482 1483 1484 1485 1485 1485 1485 1485 1485 1485 1485 1484 1484 1482 1480 1479 1477 1475 1473 1470 1467
1406 1411 1417 1422 1429 1431 1436 1440 1444 1449 1452 1454 1457 1460 1462 1464 1466 1469 1472 1474 1474 1476 1479 1479 1481 1482 1481 1480 1481 1480 1480 1481 1480 1481 1479 1478 1477 1475 1473 1472 1469 1467 1464
1408 1411 1416 1424 1426 1430 1435 1439 1441 1446 1450 1454 1456 1459 1461 1463 1465 1467 1469 1470 1472 1474 1476 1477 1478 1479 1478 1478 1477 1477 1478 1477 1478 1476 1475 1475 1474 1472 1470 1468 1466 1464 1460
1411 1413 1419 1426 1432 1430 1433 1437 1440 1445 1448 1451 1455 1457 1458 1461 1462 1464 1466 1467 1469 1471 1473 1473 1474 1476 1475 1475 1474 1474 1474 1474 1473 1472 1471 1470 1470 1469 1467 1466 1463 1460 1457
1411 1416 1417 1418 1434 1436 1433 1436 1439 1441 1447 1450 1453 1454 1454 1456 1459 1462 1463 1465 1467 1470 1470 1471 1471 1472 1472 1472 1471 1470 1470 1470 1469 1469 1469 1467 1468 1466 1465 1463 1460 1458 1455
1413 1421 1416 1425 1430 1433 1433 1435 1438 1442 1444 1447 1451 1451 1452 1454 1457 1460 1461 1463 1465 1467 1468 1467 1468 1468 1468 1468 1467 1467 1467 1467 1467 1467 1467 1466 1465 1464 1462 1461 1458 1455 1452
1407 1422 1419 1425 1429 1430 1431 1433 1437 1439 1440 1443 1447 1446 1448 1451 1454 1457 1458 1460 1462 1465 1465 1465 1466 1466 1466 1465 1464 1464 1464 1464 1465 1465 1464 1464 1463 1462 1461 1459 1456 1454 1450
1417 1419 1419 1422 1425 1428 1430 1433 1435 1436 1437 1439 1443 1444 1446 1451 1452 1455 1456 1458 1459 1461 1462 1462 1463 1464 1464 1463 1462 1462 1462 1462 1463 1462 1461 1461 1461 1460 1459 1457 1455 1452 1449
1418 1416 1418 1419 1421 1423 1428 1433 1433 1436 1437 1437 1439 1441 1444 1447 1450 1451 1453 1455 1456 1457 1458 1459 1460 1461 1462 1459 1459 1458 1459 1461 1459 1458 1458 1459 1459 1459 1457 1455 1453 1450 1447
1416 1413 1414 1416 1420 1424 1427 1430 1429 1433 1434 1437 1438 1441 1444 1445 1446 1447 1449 1451 1452 1454 1455 1456 1457 1458 1457 1457 1456 1456 1456 1456 1456 1456 1456 1456 1456 1456 1455 1454 1452 1448 1446
1413 1413 1416 1414 1419 1423 1428 1428 1432 1430 1430 1431 1435 1436 1441 1441 1442 1444 1446 1448 1449 1450 1451 1452 1453 1454 1454 1453 1453 1453 1453 1454 1454 1454 1454 1453 1453 1453 1453 1451 1450 1447 1446
1414 1414 1416 1417 1420 1422 1424 1427 1427 1427 1427 1431 1432 1432 1435 1436 1438 1441 1442 1443 1444 1446 1447 1448 1448 1449 1450 1449 1449 1450 1450 1450 1450 1450 1450 1450 1451 1451 1450 1449 1448 1446 1445